Location: *
(46.1006°N, 1.8394°E)
Time: 05:53:13
(UTC+00:00)

Terra - Pass Details

Date: 20 September 2019
Orbit: 701 x 703 km, 98.2° (Epoch: 21 October)

Event Time Altitude Azimuth Distance (km) Brightness Sun altitude
Exits shadow 21:33:39 22° 358° (N) 1,524 3.9 -34.7°
Drops below altitude 10° 21:35:21 10° 353° (N) 2,181 4.9 -34.9°
Sets 21:37:38 0° 350° (N) 3,104 5.9 -35.1°
